Location: McFarlands Corners
(41.4117°N, 81.3382°W)
Time: 14:31:30
(UTC+00:00)

A-11 Canister half - Pass Details

Date: 24 February 2026
Orbit: 1513 x 1687 km, 47.2° (Epoch: 11 March)

Event Time Altitude Azimuth Distance (km) Brightness Sun altitude
Rises 21:58:46 0° 185° (S) 4,894 12.0 11.9°
Reaches altitude 10° 22:02:55 10° 170° (S) 3,926 11.4 11.2°
Maximum altitude 22:09:54 22° 126° (SE) 3,123 10.4 10.0°
Drops below altitude 10° 22:16:53 10° 81° (E) 3,948 10.6 8.8°
Sets 22:21:01 0° 68° (ENE) 4,929 11.0 8.0°
